Find Starlink 4465

NORAD ID: 53496 Int'l Des: 2022-099 Owner: SPXS Country: US Constellation: starlink operational
LEOCIRCULARRETROGRADE

实时位置

正在加载3D地球...

关于 Starlink 4465

正在加载描述...

即将过境

Passes for default location (London). Set your location on the main map for personalized predictions.

高度历史

Loading altitude history...

两行轨道根数

1 53496U 22099AH 26107.27769485 .01357800 25865-5 56242-3 0 9990
2 53496 97.6258 259.4842 0010295 279.8893 80.1234 16.23072872203688
Epoch: Apr 17, 2026 • Age: 9 hours

当前状态

高度 223.4 km
速度 7.78 km/s
星下点 57.40°N, 165.45°E
发射日期 Aug 12, 2022
运行时间 3.6 years
类型 internet

技术详情

分类 Payload
质量 300.00 kg
干质量 275.00 kg
总质量 300.00 kg
长度 0.20 m
直径 2.80 m
跨度 9.00 m
形状 Box + pan
制造商 SPXS
平台类型 Starlink
阶段状态 In Orbit
所有者/国家 SPXS/US

Most Searched